Weather History for Waco, TX

Change the Weather History Date:

Thursday, June 5, 2014

  Actual Average Record
Temperature  
Mean Temperature 82 °F 79 °F  
Max Temperature 91 °F 90 °F 101 °F (2011)
Min Temperature 73 °F 69 °F 56 °F (2009)
Degree Days  
Heating Degree Days 0 0  
Month to date heating degree days 0 0  
Since 1 June heating degree days 0 0  
Since 1 July heating degree days 2611 2142  
Cooling Degree Days 17 14  
Month to date cooling degree days 82 69  
Year to date cooling degree days 469 521  
Since 1 June cooling degree days 82 69  
Growing Degree Days 32 (Base 50)    
Moisture  
Dew Point 70 °F    
Average Humidity 70    
Maximum Humidity 87    
Minimum Humidity 52    
Precipitation  
Precipitation 0.00 in 0.14 in 2.79 in (1961)
Month to date precipitation 0.00 0.71  
Year to date precipitation 11.14 15.60  
Sea Level Pressure  
Sea Level Pressure 29.81 in    
Wind  
Wind Speed 13 mph (South)    
Max Wind Speed 24 mph    
Max Gust Speed 33 mph    
Visibility 10 miles    
Events      
T = Trace of Precipitation, MM = Missing Value Source: NWS Daily Summary

Daily Weather History Graph

Daily Weather History Graph

Search for Another Location

Airport:

Trip Planner

Search our weather history database for the weather conditions in past years. The results will help you decide how hot, cold, wet, or windy it might be!

Date:

Astronomy

Jun. 05, 2014 Rise Set
Actual Time 6:23 AM CDT 8:31 PM CDT
Civil Twilight 5:55 AM CDT 8:59 PM CDT
Nautical Twilight 5:22 AM CDT 9:33 PM CDT
Astronomical Twilight 4:45 AM CDT 10:09 PM CDT
Moon 1:20 PM CDT (6/5) 1:18 AM CDT (6/5)
Length of Visible Light 15h 03m
Length of Day
14h 07m
Waxing Crescent, 49% of the Moon is Illuminated
Jun 5
Waxing Crescent
Jun 5
First Quarter
Jun 12
Full
Jun 19
Last Quarter
Jun 27
New

Hourly Weather History & Observations

Time (CDT) Temp. Heat Index Dew Point Humidity Pressure Visibility Wind Dir Wind Speed Gust Speed Precip Events Conditions
12:51 AM 78.1 °F - 70.0 °F 76% 29.81 in 10.0 mi South 15.0 mph - N/A   Clear
1:51 AM 75.9 °F - 70.0 °F 82% 29.80 in 10.0 mi South 11.5 mph - N/A   Clear
2:51 AM 75.0 °F - 70.0 °F 84% 29.79 in 10.0 mi South 11.5 mph - N/A   Clear
3:51 AM 73.9 °F - 70.0 °F 87% 29.78 in 10.0 mi South 9.2 mph - N/A   Clear
4:51 AM 73.0 °F - 70.0 °F 90% 29.78 in 10.0 mi South 12.7 mph - N/A   Clear
5:51 AM 73.9 °F - 70.0 °F 87% 29.78 in 10.0 mi South 17.3 mph - N/A   Scattered Clouds
6:01 AM 73.4 °F - 69.8 °F 88% - 10.0 mi South 15.0 mph 23.0 mph N/A   Mostly Cloudy
6:51 AM 75.0 °F - 69.1 °F 82% 29.80 in 10.0 mi South 12.7 mph - N/A   Overcast
7:51 AM 75.9 °F - 69.1 °F 79% 29.80 in 10.0 mi South 10.4 mph - N/A   Overcast
8:51 AM 77.0 °F - 69.1 °F 76% 29.81 in 10.0 mi South 11.5 mph - N/A   Overcast
8:54 AM 78.8 °F - 69.8 °F 74% 29.85 in 10.0 mi South 11.5 mph - N/A   Overcast
9:51 AM 80.1 °F 83.2 °F 70.0 °F 71% 29.83 in 10.0 mi SSE 13.8 mph - N/A   Overcast
10:51 AM 80.1 °F 83.2 °F 70.0 °F 71% 29.85 in 10.0 mi South 12.7 mph - N/A   Overcast
11:44 AM 80.6 °F 83.9 °F 69.8 °F 70% 29.88 in 10.0 mi South 12.7 mph - N/A   Overcast
11:51 AM 82.0 °F 86.3 °F 71.1 °F 69% 29.86 in 10.0 mi South 11.5 mph - N/A   Overcast
12:51 PM 84.0 °F 88.4 °F 70.0 °F 63% 29.84 in 10.0 mi South 16.1 mph - N/A   Overcast
1:51 PM 87.1 °F 92.8 °F 71.1 °F 59% 29.82 in 10.0 mi South 18.4 mph 26.5 mph N/A   Overcast
2:51 PM 86.0 °F 91.5 °F 71.1 °F 61% 29.83 in 10.0 mi South 12.7 mph - N/A   Overcast
3:51 PM 89.1 °F 95.0 °F 71.1 °F 55% 29.82 in 10.0 mi South 12.7 mph - N/A   Overcast
4:51 PM 90.0 °F 96.4 °F 71.1 °F 54% 29.80 in 10.0 mi South 13.8 mph - N/A   Mostly Cloudy
5:51 PM 91.0 °F 97.6 °F 71.1 °F 52% 29.79 in 10.0 mi South 15.0 mph - N/A   Mostly Cloudy
6:51 PM 89.1 °F 95.0 °F 71.1 °F 55% 29.77 in 10.0 mi South 20.7 mph 25.3 mph N/A   Partly Cloudy
7:51 PM 86.0 °F 92.2 °F 72.0 °F 63% 29.77 in 10.0 mi South 16.1 mph - N/A   Clear
8:51 PM 84.0 °F 89.6 °F 72.0 °F 67% 29.78 in 10.0 mi South 11.5 mph - N/A   Clear
9:51 PM 82.9 °F 88.0 °F 72.0 °F 69% 29.78 in 10.0 mi South 12.7 mph - N/A   Partly Cloudy
10:51 PM 81.0 °F 84.9 °F 71.1 °F 72% 29.81 in 10.0 mi South 10.4 mph - N/A   Clear
11:51 PM 79.0 °F - 71.1 °F 77% 29.82 in 10.0 mi South 11.5 mph - N/A   Clear